Location: DARK SKY Beskydy - Park tmavé oblohy, www.darkskybeskydy.cz
(49.4926°N, 18.5016°E)
Time: 09:19:33
(UTC+01:00)

Explorer 7 - Visible Passes

Search period start: 25 February 2024 00:00
Search period end: 06 March 2024 00:00
Orbit: 470 x 632 km, 50.3° (Epoch: 25 February)

Date Brightness Start Highest point End Pass type
(mag) Time Alt. Az. Time Alt. Az. Time Alt. Az.
01 Mar 9.3 05:17:11 10° SSE 05:19:02 13° SE 05:20:53 10° ESE visible
02 Mar 9.1 05:11:05 10° S 05:13:36 18° SE 05:16:07 10° E visible
03 Mar 8.6 05:05:16 10° SSW 05:08:10 22° SE 05:11:06 10° E visible
04 Mar 8.2 04:59:39 10° SSW 05:02:45 28° SSE 05:05:57 10° E visible
05 Mar 7.7 04:54:48 15° SSW 04:57:20 36° SSE 05:00:44 10° E visible
